site,time,unit,value
Meadow Lane,10/11/2023 00:00:00,MW,5.1858851999999995
Meadow Lane,10/11/2023 00:05:00,MW,5.3683508
Meadow Lane,10/11/2023 00:10:00,MW,5.396471200000001
Meadow Lane,10/11/2023 00:15:00,MW,5.4196328000000005
Meadow Lane,10/11/2023 00:20:00,MW,5.4255748
Meadow Lane,10/11/2023 00:25:00,MW,5.2922583
Meadow Lane,10/11/2023 00:30:00,MW,5.2323614
Meadow Lane,10/11/2023 00:35:00,MW,5.1696982
Meadow Lane,10/11/2023 00:40:00,MW,5.2181929
Meadow Lane,10/11/2023 00:45:00,MW,5.3644242
Meadow Lane,10/11/2023 00:50:00,MW,5.3617677
Meadow Lane,10/11/2023 00:55:00,MW,5.1422489
Meadow Lane,10/11/2023 01:00:00,MW,5.075772799999999
Meadow Lane,10/11/2023 01:05:00,MW,5.047068599999999
Meadow Lane,10/11/2023 01:10:00,MW,5.0277783
Meadow Lane,10/11/2023 01:15:00,MW,5.024252000000001
Meadow Lane,10/11/2023 01:20:00,MW,5.168684600000001
Meadow Lane,10/11/2023 01:25:00,MW,5.1765408
Meadow Lane,10/11/2023 01:30:00,MW,5.1677672999999995
Meadow Lane,10/11/2023 01:35:00,MW,5.1160915
Meadow Lane,10/11/2023 01:40:00,MW,5.1398895
Meadow Lane,10/11/2023 01:45:00,MW,5.255631
Meadow Lane,10/11/2023 01:50:00,MW,5.0541072
Meadow Lane,10/11/2023 01:55:00,MW,5.0648854
Meadow Lane,10/11/2023 02:00:00,MW,5.1441799
Meadow Lane,10/11/2023 02:05:00,MW,5.109451
Meadow Lane,10/11/2023 02:10:00,MW,5.0856512
Meadow Lane,10/11/2023 02:15:00,MW,5.1280921
Meadow Lane,10/11/2023 02:20:00,MW,5.2359372
Meadow Lane,10/11/2023 02:25:00,MW,5.1825474
Meadow Lane,10/11/2023 02:30:00,MW,5.068011800000001
Meadow Lane,10/11/2023 02:35:00,MW,5.1572588
Meadow Lane,10/11/2023 02:40:00,MW,5.083804600000001
Meadow Lane,10/11/2023 02:45:00,MW,5.1485591
Meadow Lane,10/11/2023 02:50:00,MW,5.1304774
Meadow Lane,10/11/2023 02:55:00,MW,5.189615099999999
Meadow Lane,10/11/2023 03:00:00,MW,5.1795139
Meadow Lane,10/11/2023 03:05:00,MW,5.1005243
Meadow Lane,10/11/2023 03:10:00,MW,5.0568088
Meadow Lane,10/11/2023 03:15:00,MW,5.0860389999999995
Meadow Lane,10/11/2023 03:20:00,MW,5.1472377
Meadow Lane,10/11/2023 03:25:00,MW,5.1925783
Meadow Lane,10/11/2023 03:30:00,MW,5.4557769
Meadow Lane,10/11/2023 03:35:00,MW,5.609597000000001
Meadow Lane,10/11/2023 03:40:00,MW,5.4280307
Meadow Lane,10/11/2023 03:45:00,MW,5.1775453
Meadow Lane,10/11/2023 03:50:00,MW,5.2400822
Meadow Lane,10/11/2023 03:55:00,MW,5.1812682
Meadow Lane,10/11/2023 04:00:00,MW,5.2374335
Meadow Lane,10/11/2023 04:05:00,MW,5.123378000000001
Meadow Lane,10/11/2023 04:10:00,MW,5.1323773
Meadow Lane,10/11/2023 04:15:00,MW,5.1256072
Meadow Lane,10/11/2023 04:20:00,MW,5.0231878000000005
Meadow Lane,10/11/2023 04:25:00,MW,5.0578243
Meadow Lane,10/11/2023 04:30:00,MW,5.2447648000000004
Meadow Lane,10/11/2023 04:35:00,MW,5.2976737
Meadow Lane,10/11/2023 04:40:00,MW,5.2966748
Meadow Lane,10/11/2023 04:45:00,MW,5.3541718
Meadow Lane,10/11/2023 04:50:00,MW,5.3649656
Meadow Lane,10/11/2023 04:55:00,MW,5.2583548
Meadow Lane,10/11/2023 05:00:00,MW,5.13081
Meadow Lane,10/11/2023 05:05:00,MW,5.1765042
Meadow Lane,10/11/2023 05:10:00,MW,4.981431799999999
Meadow Lane,10/11/2023 05:15:00,MW,5.0664082
Meadow Lane,10/11/2023 05:20:00,MW,5.0593648
Meadow Lane,10/11/2023 05:25:00,MW,5.1131446
Meadow Lane,10/11/2023 05:30:00,MW,5.249772999999999
Meadow Lane,10/11/2023 05:35:00,MW,5.358657
Meadow Lane,10/11/2023 05:40:00,MW,5.2483255
Meadow Lane,10/11/2023 05:45:00,MW,5.3151011
Meadow Lane,10/11/2023 05:50:00,MW,5.4533231
Meadow Lane,10/11/2023 05:55:00,MW,5.8237521999999995
Meadow Lane,10/11/2023 06:00:00,MW,6.1905933
Meadow Lane,10/11/2023 06:05:00,MW,6.5930471
Meadow Lane,10/11/2023 06:10:00,MW,6.743217
Meadow Lane,10/11/2023 06:15:00,MW,6.9480397
Meadow Lane,10/11/2023 06:20:00,MW,7.1196327
Meadow Lane,10/11/2023 06:25:00,MW,7.233162500000001
Meadow Lane,10/11/2023 06:30:00,MW,7.2137560999999994
Meadow Lane,10/11/2023 06:35:00,MW,7.6071145
Meadow Lane,10/11/2023 06:40:00,MW,7.6995036
Meadow Lane,10/11/2023 06:45:00,MW,7.6253917
Meadow Lane,10/11/2023 06:50:00,MW,7.7532598
Meadow Lane,10/11/2023 06:55:00,MW,7.9190089
Meadow Lane,10/11/2023 07:00:00,MW,8.130379999999999
Meadow Lane,10/11/2023 07:05:00,MW,8.446496400000001
Meadow Lane,10/11/2023 07:10:00,MW,8.4776402
Meadow Lane,10/11/2023 07:15:00,MW,8.56248
Meadow Lane,10/11/2023 07:20:00,MW,8.5673215
Meadow Lane,10/11/2023 07:25:00,MW,8.914874600000001
Meadow Lane,10/11/2023 07:30:00,MW,8.9452763
Meadow Lane,10/11/2023 07:35:00,MW,8.810634
Meadow Lane,10/11/2023 07:40:00,MW,8.8368893
Meadow Lane,10/11/2023 07:45:00,MW,9.1634416
Meadow Lane,10/11/2023 07:50:00,MW,9.2514504
Meadow Lane,10/11/2023 07:55:00,MW,9.1492923
Meadow Lane,10/11/2023 08:00:00,MW,8.941046
Meadow Lane,10/11/2023 08:05:00,MW,8.957262
Meadow Lane,10/11/2023 08:10:00,MW,8.986459700000001
Meadow Lane,10/11/2023 08:15:00,MW,9.2819093
Meadow Lane,10/11/2023 08:20:00,MW,9.172936499999999
Meadow Lane,10/11/2023 08:25:00,MW,9.289781699999999
Meadow Lane,10/11/2023 08:30:00,MW,9.0830169
Meadow Lane,10/11/2023 08:35:00,MW,9.0759155
Meadow Lane,10/11/2023 08:40:00,MW,9.3124337
Meadow Lane,10/11/2023 08:45:00,MW,9.4606161
Meadow Lane,10/11/2023 08:50:00,MW,9.6191914
Meadow Lane,10/11/2023 08:55:00,MW,9.559885000000001
Meadow Lane,10/11/2023 09:00:00,MW,9.444769
Meadow Lane,10/11/2023 09:05:00,MW,9.4285876
Meadow Lane,10/11/2023 09:10:00,MW,9.5220056
Meadow Lane,10/11/2023 09:15:00,MW,9.7613503
Meadow Lane,10/11/2023 09:20:00,MW,9.689749800000001
Meadow Lane,10/11/2023 09:25:00,MW,9.542716
Meadow Lane,10/11/2023 09:30:00,MW,9.417325
Meadow Lane,10/11/2023 09:35:00,MW,9.6377788
Meadow Lane,10/11/2023 09:40:00,MW,9.784045599999999
Meadow Lane,10/11/2023 09:45:00,MW,10.2924007
Meadow Lane,10/11/2023 09:50:00,MW,10.142816100000001
Meadow Lane,10/11/2023 09:55:00,MW,9.7240416
Meadow Lane,10/11/2023 10:00:00,MW,9.363026999999999
Meadow Lane,10/11/2023 10:05:00,MW,9.2726455
Meadow Lane,10/11/2023 10:10:00,MW,9.35106
Meadow Lane,10/11/2023 10:15:00,MW,9.3017129
Meadow Lane,10/11/2023 10:20:00,MW,9.1591688
Meadow Lane,10/11/2023 10:25:00,MW,9.260574
Meadow Lane,10/11/2023 10:30:00,MW,9.251389
Meadow Lane,10/11/2023 10:35:00,MW,9.259811
Meadow Lane,10/11/2023 10:40:00,MW,9.3032579
Meadow Lane,10/11/2023 10:45:00,MW,9.2434776
Meadow Lane,10/11/2023 10:50:00,MW,9.5148458
Meadow Lane,10/11/2023 10:55:00,MW,9.490618000000001
Meadow Lane,10/11/2023 11:00:00,MW,9.5030872
Meadow Lane,10/11/2023 11:05:00,MW,9.460102299999999
Meadow Lane,10/11/2023 11:10:00,MW,9.3791561
Meadow Lane,10/11/2023 11:15:00,MW,9.082777
Meadow Lane,10/11/2023 11:20:00,MW,9.1703939
Meadow Lane,10/11/2023 11:25:00,MW,9.320014
Meadow Lane,10/11/2023 11:30:00,MW,9.073452
Meadow Lane,10/11/2023 11:35:00,MW,9.225909000000001
Meadow Lane,10/11/2023 11:40:00,MW,9.6265507
Meadow Lane,10/11/2023 11:45:00,MW,9.7883253
Meadow Lane,10/11/2023 11:50:00,MW,9.713687
Meadow Lane,10/11/2023 11:55:00,MW,9.608464999999999
Meadow Lane,10/11/2023 12:00:00,MW,9.947405799999999
Meadow Lane,10/11/2023 12:05:00,MW,9.7470425
Meadow Lane,10/11/2023 12:10:00,MW,9.6665294
Meadow Lane,10/11/2023 12:15:00,MW,9.448925
Meadow Lane,10/11/2023 12:20:00,MW,9.502748
Meadow Lane,10/11/2023 12:25:00,MW,9.6551223
Meadow Lane,10/11/2023 12:30:00,MW,9.4768953
Meadow Lane,10/11/2023 12:35:00,MW,9.3967565
Meadow Lane,10/11/2023 12:40:00,MW,9.347966
Meadow Lane,10/11/2023 12:45:00,MW,9.494024
Meadow Lane,10/11/2023 12:50:00,MW,9.5054297
Meadow Lane,10/11/2023 12:55:00,MW,9.5605704
Meadow Lane,10/11/2023 13:00:00,MW,9.5662963
Meadow Lane,10/11/2023 13:05:00,MW,9.6946496
Meadow Lane,10/11/2023 13:10:00,MW,9.5519366
Meadow Lane,10/11/2023 13:15:00,MW,9.5573497
Meadow Lane,10/11/2023 13:20:00,MW,9.561717999999999
Meadow Lane,10/11/2023 13:25:00,MW,9.571591600000001
Meadow Lane,10/11/2023 13:30:00,MW,9.364321499999999
Meadow Lane,10/11/2023 13:35:00,MW,9.2658585
Meadow Lane,10/11/2023 13:40:00,MW,9.105835500000001
Meadow Lane,10/11/2023 13:45:00,MW,9.071552
Meadow Lane,10/11/2023 13:50:00,MW,9.0023057
Meadow Lane,10/11/2023 13:55:00,MW,9.068564899999998
Meadow Lane,10/11/2023 14:00:00,MW,9.0091273
Meadow Lane,10/11/2023 14:05:00,MW,8.991488
Meadow Lane,10/11/2023 14:10:00,MW,9.0351776
Meadow Lane,10/11/2023 14:15:00,MW,9.1946276
Meadow Lane,10/11/2023 14:20:00,MW,9.02931
Meadow Lane,10/11/2023 14:25:00,MW,8.920304300000002
Meadow Lane,10/11/2023 14:30:00,MW,8.841243500000001
Meadow Lane,10/11/2023 14:35:00,MW,8.885076000000002
Meadow Lane,10/11/2023 14:40:00,MW,8.8417537
Meadow Lane,10/11/2023 14:45:00,MW,8.767702
Meadow Lane,10/11/2023 14:50:00,MW,8.616779999999999
Meadow Lane,10/11/2023 14:55:00,MW,8.7539954
Meadow Lane,10/11/2023 15:00:00,MW,8.803279
Meadow Lane,10/11/2023 15:05:00,MW,8.794729499999999
Meadow Lane,10/11/2023 15:10:00,MW,8.8163587
Meadow Lane,10/11/2023 15:15:00,MW,8.7777896
Meadow Lane,10/11/2023 15:20:00,MW,8.8468528
Meadow Lane,10/11/2023 15:25:00,MW,8.8953335
Meadow Lane,10/11/2023 15:30:00,MW,8.843085
Meadow Lane,10/11/2023 15:35:00,MW,8.9747144
Meadow Lane,10/11/2023 15:40:00,MW,8.9804557
Meadow Lane,10/11/2023 15:45:00,MW,9.0949028
Meadow Lane,10/11/2023 15:50:00,MW,9.1190526
Meadow Lane,10/11/2023 15:55:00,MW,8.9642374
Meadow Lane,10/11/2023 16:00:00,MW,8.998491600000001
Meadow Lane,10/11/2023 16:05:00,MW,9.0111761
Meadow Lane,10/11/2023 16:10:00,MW,8.969221600000001
Meadow Lane,10/11/2023 16:15:00,MW,9.1451003
Meadow Lane,10/11/2023 16:20:00,MW,9.0171937
Meadow Lane,10/11/2023 16:25:00,MW,8.8673035
Meadow Lane,10/11/2023 16:30:00,MW,8.9289683
Meadow Lane,10/11/2023 16:35:00,MW,9.1493423
Meadow Lane,10/11/2023 16:40:00,MW,9.338225000000001
Meadow Lane,10/11/2023 16:45:00,MW,9.381600500000001
Meadow Lane,10/11/2023 16:50:00,MW,9.099568900000001
Meadow Lane,10/11/2023 16:55:00,MW,8.949465
Meadow Lane,10/11/2023 17:00:00,MW,8.9132037
Meadow Lane,10/11/2023 17:05:00,MW,8.8494482
Meadow Lane,10/11/2023 17:10:00,MW,8.895311
Meadow Lane,10/11/2023 17:15:00,MW,8.8465404
Meadow Lane,10/11/2023 17:20:00,MW,8.7223595
Meadow Lane,10/11/2023 17:25:00,MW,8.761484
Meadow Lane,10/11/2023 17:30:00,MW,8.5897614
Meadow Lane,10/11/2023 17:35:00,MW,8.5428266
Meadow Lane,10/11/2023 17:40:00,MW,8.4764662
Meadow Lane,10/11/2023 17:45:00,MW,8.345284
Meadow Lane,10/11/2023 17:50:00,MW,8.506054899999999
Meadow Lane,10/11/2023 17:55:00,MW,8.5585473
Meadow Lane,10/11/2023 18:00:00,MW,8.3588337
Meadow Lane,10/11/2023 18:05:00,MW,8.1930346
Meadow Lane,10/11/2023 18:10:00,MW,8.2686983
Meadow Lane,10/11/2023 18:15:00,MW,8.2071756
Meadow Lane,10/11/2023 18:20:00,MW,8.119968700000001
Meadow Lane,10/11/2023 18:25:00,MW,7.9723961
Meadow Lane,10/11/2023 18:30:00,MW,7.881785600000001
Meadow Lane,10/11/2023 18:35:00,MW,7.8149357
Meadow Lane,10/11/2023 18:40:00,MW,7.8801737
Meadow Lane,10/11/2023 18:45:00,MW,7.7526512
Meadow Lane,10/11/2023 18:50:00,MW,7.9802866
Meadow Lane,10/11/2023 18:55:00,MW,8.0091319
Meadow Lane,10/11/2023 19:00:00,MW,7.878659300000001
Meadow Lane,10/11/2023 19:05:00,MW,7.6960298
Meadow Lane,10/11/2023 19:10:00,MW,7.8099174
Meadow Lane,10/11/2023 19:15:00,MW,7.7522628000000005
Meadow Lane,10/11/2023 19:20:00,MW,7.7321069
Meadow Lane,10/11/2023 19:25:00,MW,7.7806108
Meadow Lane,10/11/2023 19:30:00,MW,7.6533843
Meadow Lane,10/11/2023 19:35:00,MW,7.5647614
Meadow Lane,10/11/2023 19:40:00,MW,7.6342247
Meadow Lane,10/11/2023 19:45:00,MW,7.3962204
Meadow Lane,10/11/2023 19:50:00,MW,7.6015709000000005
Meadow Lane,10/11/2023 19:55:00,MW,7.9523537
Meadow Lane,10/11/2023 20:00:00,MW,8.273141800000001
Meadow Lane,10/11/2023 20:05:00,MW,8.2491407
Meadow Lane,10/11/2023 20:10:00,MW,8.222554299999999
Meadow Lane,10/11/2023 20:15:00,MW,8.1725082
Meadow Lane,10/11/2023 20:20:00,MW,8.335109
Meadow Lane,10/11/2023 20:25:00,MW,8.3347187
Meadow Lane,10/11/2023 20:30:00,MW,8.3268724
Meadow Lane,10/11/2023 20:35:00,MW,8.334689699999998
Meadow Lane,10/11/2023 20:40:00,MW,8.119602
Meadow Lane,10/11/2023 20:45:00,MW,8.1201942
Meadow Lane,10/11/2023 20:50:00,MW,8.076041499999999
Meadow Lane,10/11/2023 20:55:00,MW,8.226177499999999
Meadow Lane,10/11/2023 21:00:00,MW,8.0243387
Meadow Lane,10/11/2023 21:05:00,MW,7.9808062
Meadow Lane,10/11/2023 21:10:00,MW,8.0051181
Meadow Lane,10/11/2023 21:15:00,MW,7.873454799999999
Meadow Lane,10/11/2023 21:20:00,MW,7.5477495
Meadow Lane,10/11/2023 21:25:00,MW,7.1657986000000005
Meadow Lane,10/11/2023 21:30:00,MW,7.1237207
Meadow Lane,10/11/2023 21:35:00,MW,6.819331399999999
Meadow Lane,10/11/2023 21:40:00,MW,6.6357234
Meadow Lane,10/11/2023 21:45:00,MW,6.4903588
Meadow Lane,10/11/2023 21:50:00,MW,6.1774006
Meadow Lane,10/11/2023 21:55:00,MW,5.961925300000001
Meadow Lane,10/11/2023 22:00:00,MW,5.9512506
Meadow Lane,10/11/2023 22:05:00,MW,5.8353219
Meadow Lane,10/11/2023 22:10:00,MW,5.9489964
Meadow Lane,10/11/2023 22:15:00,MW,6.0209209999999995
Meadow Lane,10/11/2023 22:20:00,MW,5.8206039
Meadow Lane,10/11/2023 22:25:00,MW,5.7505811
Meadow Lane,10/11/2023 22:30:00,MW,5.6640483
Meadow Lane,10/11/2023 22:35:00,MW,5.5936813
Meadow Lane,10/11/2023 22:40:00,MW,5.5449408
Meadow Lane,10/11/2023 22:45:00,MW,5.5774954999999995
Meadow Lane,10/11/2023 22:50:00,MW,5.6255267
Meadow Lane,10/11/2023 22:55:00,MW,5.5719178
Meadow Lane,10/11/2023 23:00:00,MW,5.3672003
Meadow Lane,10/11/2023 23:05:00,MW,5.2726815
Meadow Lane,10/11/2023 23:10:00,MW,5.1868603
Meadow Lane,10/11/2023 23:15:00,MW,5.1462183
Meadow Lane,10/11/2023 23:20:00,MW,5.0594375
Meadow Lane,10/11/2023 23:25:00,MW,5.072338
Meadow Lane,10/11/2023 23:30:00,MW,5.071796600000001
Meadow Lane,10/11/2023 23:35:00,MW,4.825459
Meadow Lane,10/11/2023 23:40:00,MW,4.8658664
Meadow Lane,10/11/2023 23:45:00,MW,4.9791304
Meadow Lane,10/11/2023 23:50:00,MW,5.180559000000001
Meadow Lane,10/11/2023 23:55:00,MW,5.1140810000000005
